Location: Wavehorne
(51.0500°N, 0.8333°E)
Time: 13:19:15
(UTC+00:00)

Cosmos 1937 Rocket - Pass Details

Date: 20 June 2021
Orbit: 746 x 780 km, 74.0° (Epoch: 01 August)

Event Time Altitude Azimuth Distance (km) Brightness Sun altitude
Rises 00:24:39 0° 336° (NNW) 3,277 7.9 -15.3°
Reaches altitude 10° 00:27:05 10° 340° (NNW) 2,346 7.0 -15.2°
Maximum altitude 00:32:23 64° 62° (ENE) 867 3.9 -15.1°
Enters shadow 00:37:21 12° 143° (SE) 2,212 5.5 -15.0°
